Weather History for Gonzales, LA

Change the Weather History Date:

Friday, May 10, 2013

  Actual Average (KBTR) Record (KBTR)
Temperature  
Mean Temperature 68 °F 74 °F  
Max Temperature 74 °F 85 °F 92 °F (2003)
Min Temperature 62 °F 64 °F 47 °F (1906)
Degree Days  
Heating Degree Days 0 0  
Month to date heating degree days 0  
Since 1 July heating degree days 1553  
Cooling Degree Days 3 9  
Month to date cooling degree days 83  
Year to date cooling degree days 314  
Growing Degree Days 18 (Base 50)    
Moisture  
Dew Point 66 °F    
Average Humidity 95    
Maximum Humidity 100    
Minimum Humidity 87    
Precipitation  
Precipitation 1.69 in 0.15 in 3.16 in (2013)
Month to date precipitation 1.52  
Year to date precipitation 21.15  
Snow  
Snow 0.00 in - - ()
Month to date snowfall  
Since 1 July snowfall  
Snow Depth -    
Sea Level Pressure  
Sea Level Pressure 29.98 in    
Wind  
Wind Speed 6 mph (SE)    
Max Wind Speed 22 mph    
Max Gust Speed 33 mph    
Visibility 8 miles    
Events Rain , Thunderstorm    
T = Trace of Precipitation, MM = Missing Value Source: NWS Daily Summary

Daily Weather History Graph

Daily Weather History Graph

Search for Another Location

Airport:

Trip Planner

Search our weather history database for the weather conditions in past years. The results will help you decide how hot, cold, wet, or windy it might be!

Date:

Astronomy

May. 10, 2013 Rise Set
Actual Time 6:13 AM CDT 7:47 PM CDT
Civil Twilight 5:47 AM CDT 8:13 PM CDT
Nautical Twilight 5:16 AM CDT 8:44 PM CDT
Astronomical Twilight 4:43 AM CDT 9:17 PM CDT
Moon 6:38 AM CDT (5/10) 8:35 PM CDT (5/10)
Length of Visible Light 14h 26m
Length of Day
13h 34m
New Moon, 0% of the Moon is Illuminated
May 10
New Moon
May 17
First Quarter
May 24
Full
May 31
Last Quarter
Jun 8
New

Hourly Weather History & Observations

Time (CDT) Temp. Dew Point Humidity Pressure Visibility Wind Dir Wind Speed Gust Speed Precip Events Conditions
12:15 AM 73.4 °F 69.3 °F 87% 30.01 in 10.0 mi ESE 6.9 mph - N/A   Overcast
1:15 AM 73.4 °F 69.8 °F 88% 29.97 in 10.0 mi ESE 5.8 mph - N/A   Overcast
1:35 AM 73.4 °F 69.8 °F 88% 29.97 in 10.0 mi SE 8.1 mph - N/A   Overcast
1:55 AM 73.4 °F 70.0 °F 89% 29.96 in 10.0 mi ESE 8.1 mph - N/A   Overcast
2:15 AM 73.4 °F 70.0 °F 89% 29.95 in 10.0 mi SE 6.9 mph - N/A   Overcast
2:35 AM 73.6 °F 70.2 °F 89% 29.93 in 10.0 mi SE 4.6 mph - N/A   Overcast
2:55 AM 73.6 °F 70.3 °F 90% 29.96 in 10.0 mi South 6.9 mph - N/A   Overcast
3:15 AM 73.8 °F 70.3 °F 89% 29.95 in 10.0 mi SSE 5.8 mph - N/A   Overcast
3:35 AM 74.3 °F 70.5 °F 88% 29.95 in 10.0 mi SE 9.2 mph - N/A Thunderstorm Overcast
3:55 AM 74.5 °F 70.5 °F 87% 29.93 in 10.0 mi SE 9.2 mph 17.3 mph N/A Rain , Thunderstorm Light Thunderstorms and Rain
4:15 AM 74.3 °F 70.7 °F 88% 29.93 in 10.0 mi SE 8.1 mph - N/A   Overcast
4:35 AM 74.3 °F 70.7 °F 88% 29.91 in 10.0 mi SSE 6.9 mph - N/A Rain , Thunderstorm Light Thunderstorms and Rain
4:55 AM 72.9 °F 70.7 °F 93% 29.89 in 7.0 mi SE 11.5 mph - 0.04 in Rain , Thunderstorm Rain
5:15 AM 73.4 °F 71.1 °F 92% 29.88 in 10.0 mi SE 11.5 mph 20.7 mph 0.01 in Rain , Thunderstorm Light Thunderstorms and Rain
5:35 AM 71.2 °F 68.7 °F 92% 29.92 in 7.0 mi NW 21.9 mph 33.4 mph 0.08 in Rain , Thunderstorm Heavy Thunderstorms and Rain
5:55 AM 68.4 °F 65.7 °F 91% 29.97 in 2.5 mi WNW 13.8 mph 29.9 mph 0.47 in Rain , Thunderstorm Heavy Thunderstorms and Rain
6:15 AM 65.3 °F 64.9 °F 99% 30.00 in 1.5 mi NW 17.3 mph 27.6 mph 0.53 in Rain , Thunderstorm Heavy Thunderstorms and Rain
6:35 AM 65.7 °F 65.3 °F 99% 30.03 in 4.0 mi WNW 8.1 mph 23.0 mph 0.72 in Rain , Thunderstorm Heavy Thunderstorms and Rain
7:15 AM 65.7 °F 65.5 °F 99% 30.03 in 10.0 mi North 4.6 mph - 0.03 in Rain , Thunderstorm Light Thunderstorms and Rain
7:35 AM 65.7 °F 65.3 °F 99% 30.02 in 10.0 mi Calm Calm - 0.04 in Rain , Thunderstorm Light Thunderstorms and Rain
8:15 AM 65.8 °F 65.3 °F 98% 29.97 in 10.0 mi SE 5.8 mph - N/A Thunderstorm Unknown
8:35 AM 65.7 °F 65.3 °F 99% 29.95 in 10.0 mi SSE 5.8 mph - 0.01 in Rain Light Rain
8:55 AM 66.0 °F 65.3 °F 98% 29.97 in 10.0 mi SE 5.8 mph - 0.01 in   Clear
9:15 AM 66.4 °F 65.7 °F 98% 29.98 in 10.0 mi SE 10.4 mph - N/A   Clear
9:35 AM 66.2 °F 65.7 °F 98% 30.00 in 10.0 mi East 5.8 mph - N/A   Scattered Clouds
9:55 AM 66.6 °F 65.8 °F 98% 30.01 in 10.0 mi East 5.8 mph - N/A   Scattered Clouds
10:15 AM 67.1 °F 65.5 °F 95% 30.04 in 10.0 mi NE 5.8 mph - N/A   Overcast
10:35 AM 66.6 °F 65.1 °F 95% 30.04 in 10.0 mi East 6.9 mph - N/A Rain Light Rain
10:55 AM 66.4 °F 65.3 °F 96% 30.08 in 10.0 mi Calm Calm - N/A Rain Light Rain
11:15 AM 66.6 °F 65.8 °F 98% 30.05 in 10.0 mi ESE 3.5 mph - N/A Rain Light Rain
11:35 AM 66.9 °F 66.2 °F 98% 30.04 in 10.0 mi ENE 5.8 mph - N/A Rain Light Rain
12:15 PM 67.3 °F 66.2 °F 96% 30.02 in 10.0 mi ENE 6.9 mph - N/A   Overcast
12:35 PM 67.3 °F 65.8 °F 95% 30.03 in 10.0 mi Calm Calm - N/A   Overcast
12:55 PM 68.0 °F 66.6 °F 95% 30.02 in 10.0 mi NE 5.8 mph - N/A Rain Light Rain
1:15 PM 68.2 °F 66.6 °F 95% 30.04 in 10.0 mi SE 4.6 mph - N/A Rain , Thunderstorm Light Thunderstorms and Rain
1:35 PM 69.6 °F 66.0 °F 88% 30.01 in 10.0 mi ENE 3.5 mph - N/A Thunderstorm Thunderstorm
1:55 PM 69.3 °F 66.4 °F 91% 30.02 in 10.0 mi ESE 3.5 mph - N/A Thunderstorm Thunderstorm
2:15 PM 69.3 °F 66.6 °F 91% 30.01 in 10.0 mi ESE 4.6 mph - N/A Thunderstorm Mostly Cloudy
2:35 PM 69.3 °F 66.6 °F 91% 30.00 in 10.0 mi SE 6.9 mph - N/A Thunderstorm Thunderstorm
2:55 PM 68.5 °F 66.4 °F 93% 30.00 in 5.0 mi SSE 6.9 mph - 0.04 in Rain , Thunderstorm Thunderstorms and Rain
3:15 PM 67.5 °F 66.2 °F 96% 29.99 in 7.0 mi SE 6.9 mph - 0.03 in Rain , Thunderstorm Thunderstorms and Rain
3:35 PM 67.1 °F 65.8 °F 96% 30.00 in 7.0 mi Calm Calm - 0.08 in Rain , Thunderstorm Light Thunderstorms and Rain
3:55 PM 67.1 °F 66.2 °F 97% 30.00 in 4.0 mi Calm Calm - 0.12 in Rain , Thunderstorm Thunderstorms and Rain
4:15 PM 66.2 °F 65.3 °F 97% 30.02 in 4.0 mi West 5.8 mph - 0.07 in Rain , Thunderstorm Heavy Thunderstorms and Rain
4:35 PM 66.2 °F 65.5 °F 98% 30.07 in 5.0 mi WSW 5.8 mph - 0.13 in Rain , Thunderstorm Thunderstorms and Rain
5:35 PM 65.3 °F 64.9 °F 99% 29.91 in 4.0 mi East 8.1 mph - 0.11 in Rain , Thunderstorm Rain
5:55 PM 65.7 °F 65.1 °F 98% 29.94 in 5.0 mi ENE 4.6 mph - 0.12 in Rain , Thunderstorm Light Thunderstorms and Rain
6:15 PM 65.7 °F 64.8 °F 97% 29.91 in 5.0 mi Calm Calm - N/A Thunderstorm Scattered Clouds
6:35 PM 66.6 °F 65.3 °F 96% 29.91 in 7.0 mi Calm Calm - N/A   Clear
6:55 PM 66.9 °F 64.8 °F 93% 29.92 in 10.0 mi SSE 4.6 mph - N/A   Clear
7:15 PM 66.6 °F 63.7 °F 90% 29.94 in 10.0 mi SSE 9.2 mph - N/A   Clear
7:35 PM 65.8 °F 63.1 °F 91% 29.95 in 10.0 mi SSE 9.2 mph - N/A   Clear
7:55 PM 65.3 °F 63.5 °F 94% 29.95 in 10.0 mi SSE 6.9 mph - N/A   Clear
8:15 PM 65.1 °F 63.5 °F 94% 29.96 in 10.0 mi SSE 5.8 mph - N/A   Clear
8:35 PM 64.9 °F 63.9 °F 96% 29.97 in 10.0 mi South 6.9 mph - N/A   Mostly Cloudy
8:55 PM 64.9 °F 64.0 °F 97% 29.98 in 10.0 mi Calm Calm - N/A   Overcast
9:15 PM 64.9 °F 64.0 °F 97% 29.98 in 10.0 mi Calm Calm - N/A   Overcast
9:35 PM 64.8 °F 63.9 °F 97% 29.99 in 10.0 mi Calm Calm - N/A   Overcast
9:55 PM 64.6 °F 63.9 °F 98% 29.99 in 7.0 mi Calm Calm - N/A   Overcast
10:15 PM 64.8 °F 64.4 °F 99% 30.00 in 7.0 mi Calm Calm - N/A   Mostly Cloudy
10:35 PM 63.9 °F 63.5 °F 99% 30.00 in 4.0 mi Calm Calm - N/A   Scattered Clouds
10:55 PM 63.0 °F 62.8 °F 99% 30.00 in 1.2 mi Calm Calm - N/A   Scattered Clouds
11:15 PM 62.6 °F 62.4 °F 99% 30.00 in 1.2 mi Calm Calm - N/A   Scattered Clouds
11:35 PM 62.6 °F 62.6 °F 100% 30.00 in 3.0 mi Calm Calm - N/A   Clear
11:55 PM 62.6 °F 62.6 °F 100% 30.01 in 2.5 mi Calm Calm - N/A   Clear